This is the latest recevied weather packets stored in our database for station/object SP7QPD-1. If no packets are shown the sender has not sent any weather packets the latest 1 day(s).
| Time | Temp. | Humidity | Pressure | Rain* | Wind** | Luminosity | Snow |
|---|---|---|---|---|---|---|---|
| 1777951392 | 10° C | 72% | 1008.4 hPa | 0 mm | 25.03 m/s, 157° | - | - |
| 1777950791 | 10° C | 72% | 1008.4 hPa | 0 mm | 25.03 m/s, 0° | - | - |
| 1777950191 | 10° C | 72% | 1008.4 hPa | 0 mm | 25.03 m/s, 0° | - | - |
| 1777949591 | 10° C | 72% | 1008.5 hPa | 0 mm | 25.03 m/s, 0° | - | - |
| 1777948991 | 10° C | 72% | 1008.5 hPa | 0 mm | 25.03 m/s, 180° | - | - |
| 1777948391 | 10° C | 72% | 1008.5 hPa | 0 mm | 25.03 m/s, 0° | - | - |
| 1777947791 | 10° C | 72% | 1008.6 hPa | 0 mm | 25.03 m/s, 0° | - | - |
| 1777947191 | 10.56° C | 72% | 1008.6 hPa | 0 mm | 25.03 m/s, 0° | - | - |
| 1777946591 | 10.56° C | 72% | 1008.6 hPa | 0 mm | 25.03 m/s, 0° | - | - |
| 1777945991 | 10.56° C | 72% | 1008.7 hPa | 0 mm | 25.03 m/s, 0° | - | - |
| 1777945391 | 10.56° C | 71% | 1008.8 hPa | 0 mm | 25.03 m/s, 0° | - | - |
| 1777944791 | 10.56° C | 71% | 1008.7 hPa | 0 mm | 25.03 m/s, 180° | - | - |
| 1777944190 | 11.11° C | 71% | 1008.7 hPa | 0 mm | 25.03 m/s, 0° | - | - |
| 1777943590 | 11.11° C | 71% | 1008.7 hPa | 0 mm | 25.03 m/s, 0° | - | - |
| 1777942990 | 11.11° C | 70% | 1008.8 hPa | 0 mm | 25.03 m/s, 180° | - | - |
| 1777942390 | 11.11° C | 71% | 1008.8 hPa | 0 mm | 25.03 m/s, 0° | - | - |
| 1777941790 | 11.67° C | 70% | 1008.8 hPa | 0 mm | 25.03 m/s, 0° | - | - |
| 1777941190 | 11.67° C | 70% | 1009 hPa | 0 mm | 25.03 m/s, 0° | - | - |
| 1777940590 | 11.67° C | 69% | 1008.9 hPa | 0 mm | 25.03 m/s, 0° | - | - |
| 1777939990 | 12.22° C | 69% | 1009.1 hPa | 0 mm | 25.03 m/s, 202° | - | - |
| 1777939390 | 12.22° C | 69% | 1009.1 hPa | 0 mm | 25.03 m/s, 0° | - | - |
| 1777938790 | 12.22° C | 68% | 1009.3 hPa | 0 mm | 25.03 m/s, 0° | - | - |
* Rain latest hour (hover to see other rain measurements)
** Current wind speed in m/s (hover to see current wind gust speed)